Location: Unspecified
(44.4377°N, 88.0525°W)
Time: 03:39:26
(UTC-05:00)

ISS - Visible Passes

Search period start: 21 October 2017 00:00
Search period end: 31 October 2017 00:00
Orbit: 401 x 408 km, 51.6° (Epoch: 21 October)

Date Brightness Start Highest point End Pass type
(mag) Time Alt. Az. Time Alt. Az. Time Alt. Az.
28 Oct -0.4 06:14:35 10° SE 06:15:15 10° SE 06:15:56 10° ESE visible
29 Oct -2.5 06:55:45 10° SSW 06:58:50 41° SE 07:01:56 10° ENE visible
30 Oct -1.5 06:03:54 10° SSW 06:06:33 23° SE 06:09:12 10° E visible
